Date String (YYYY-MM-DD hh:mm:ss) UTC,Instrument flags,absolute air pressure of the measurement (hPa),sample flow rate (lpm),inlet stack bypass flow (lpm),air temperature of the measurement (°C),ambient temperature measured by the external sensor (°C),aerosol sample conditioner tube jacket temperature (°C),OPC LED temperature (°C),internal box temperature (°C),relative humidity of the measurement (%),span deviation,mass concentration of particles derived from Lorenz-Mie calculation of OPC scattering (μg/m³),mass concentration of particles derived from Lorenz-Mie calculation of OPC scattering (μg/m³),mass concentration of particles derived from Lorenz-Mie calculation of OPC scattering (μg/m³)
DateTimeUTC,F1_M11,P_M11,Q1_M11,Q2_M11,T1_M11,T2_M11,T3_M11,T4_M11,T5_M11,U1_M11,ZSPAN_M11,X0_M11,X2_M11,X1_M11
2023-11-22 04:00:00,SystemResetWarning,0837.2,5.00,000.00,023.3,022.3,000.0,031.8,024.5,10.5,0000.0,0002.31,0000.93,0000.72
2023-11-22 04:01:00,SystemResetWarning,0837.2,5.00,000.00,023.3,022.3,000.0,031.7,024.5,10.5,0000.0,0002.48,0000.93,0000.72
2023-11-22 04:02:00,SystemResetWarning,0837.2,5.01,000.00,023.3,022.3,000.0,031.7,024.5,10.5,0000.0,0003.56,0000.94,0000.73
2023-11-22 04:03:00,SystemResetWarning,0837.2,5.00,000.00,023.3,022.3,000.0,031.7,024.5,10.5,0000.0,0003.75,0000.95,0000.73
2023-11-22 04:04:00,SystemResetWarning,0837.2,5.00,000.00,023.3,022.3,000.0,031.7,024.4,10.5,0000.0,0003.74,0000.95,0000.73
2023-11-22 04:05:00,SystemResetWarning,0837.2,5.00,000.00,023.3,022.4,000.0,031.7,024.5,10.5,0000.0,0003.72,0000.94,0000.72
2023-11-22 04:06:00,SystemResetWarning,0837.2,5.00,000.00,023.3,022.3,000.0,031.7,024.5,10.5,0000.0,0003.71,0000.96,0000.73
2023-11-22 04:07:00,SystemResetWarning,0837.2,4.99,000.00,023.3,022.3,000.0,031.7,024.5,10.5,0000.0,0003.62,0000.96,0000.73
2023-11-22 04:08:00,SystemResetWarning,0837.2,4.99,000.00,023.2,022.3,000.0,031.7,024.5,10.5,0000.0,0003.53,0000.96,0000.73
2023-11-22 04:09:00,SystemResetWarning,0837.2,5.00,000.00,023.2,022.3,000.0,031.7,024.5,10.5,0000.0,0003.54,0000.95,0000.73
2023-11-22 04:10:00,SystemResetWarning,0837.2,5.01,000.00,023.2,022.2,000.0,031.7,024.5,10.5,0000.0,0003.06,0000.93,0000.73
2023-11-22 04:11:00,SystemResetWarning,0837.3,5.00,000.00,023.2,022.2,000.0,031.7,024.4,10.5,0000.0,0002.76,0000.89,0000.73
2023-11-22 04:12:00,SystemResetWarning,0837.2,5.00,000.00,023.2,022.2,000.0,031.7,024.4,10.5,0000.0,0002.52,0000.88,0000.74
2023-11-22 04:13:00,SystemResetWarning,0837.2,5.00,000.00,023.2,022.2,000.0,031.6,024.4,10.6,0000.0,0001.62,0000.87,0000.73
2023-11-22 04:14:00,SystemResetWarning,0837.2,5.00,000.00,023.2,022.2,000.0,031.6,024.5,10.5,0000.0,0001.21,0000.86,0000.73
2023-11-22 04:15:00,SystemResetWarning,0837.2,5.00,000.00,023.2,022.2,000.0,031.6,024.5,10.5,0000.0,0001.23,0000.87,0000.74
2023-11-22 04:16:00,SystemResetWarning,0837.3,5.00,000.00,023.2,022.2,000.0,031.6,024.4,10.5,0000.0,0001.28,0000.89,0000.74
2023-11-22 04:17:00,SystemResetWarning,0837.2,4.99,000.00,023.2,022.2,000.0,031.6,024.4,10.5,0000.0,0001.27,0000.87,0000.74
2023-11-22 04:18:00,SystemResetWarning,0837.2,5.00,000.00,023.2,022.2,000.0,031.6,024.4,10.5,0000.0,0001.19,0000.83,0000.74
2023-11-22 04:19:00,SystemResetWarning,0837.2,5.00,000.00,023.2,022.2,000.0,031.6,024.3,10.5,0000.0,0001.18,0000.83,0000.74
2023-11-22 04:20:00,SystemResetWarning,0837.2,5.00,000.00,023.2,022.2,000.0,031.6,024.3,10.5,0000.0,0001.13,0000.82,0000.74
2023-11-22 04:21:00,SystemResetWarning,0837.2,5.00,000.00,023.2,022.2,000.0,031.6,024.4,10.5,0000.0,0001.16,0000.82,0000.74
2023-11-22 04:22:00,SystemResetWarning,0837.2,4.99,000.00,023.1,022.2,000.0,031.6,024.4,10.5,0000.0,0001.20,0000.81,0000.74
2023-11-22 04:23:00,SystemResetWarning,0837.2,5.00,000.00,023.1,022.2,000.0,031.6,024.4,10.5,0000.0,0001.22,0000.80,0000.74
2023-11-22 04:24:00,SystemResetWarning,0837.2,5.00,000.00,023.1,022.1,000.0,031.6,024.4,10.5,0000.0,0001.22,0000.81,0000.74
2023-11-22 04:25:00,SystemResetWarning,0837.2,5.00,000.00,023.1,022.1,000.0,031.6,024.3,10.6,0000.0,0001.15,0000.81,0000.75
2023-11-22 04:26:00,SystemResetWarning,0837.2,5.01,000.00,023.1,022.1,000.0,031.5,024.3,10.6,0000.0,0001.16,0000.81,0000.75
2023-11-22 04:27:00,SystemResetWarning,0837.2,5.00,000.00,023.1,022.0,000.0,031.5,024.3,10.6,0000.0,0001.15,0000.81,0000.75
2023-11-22 04:28:00,SystemResetWarning,0837.2,5.00,000.00,023.1,022.1,000.0,031.5,024.2,10.6,0000.0,0001.17,0000.82,0000.75
2023-11-22 04:29:00,SystemResetWarning,0837.2,4.99,000.00,023.1,022.1,000.0,031.5,024.3,10.6,0000.0,0001.15,0000.81,0000.75
2023-11-22 04:30:00,SystemResetWarning,0837.2,5.00,000.00,023.1,022.0,000.0,031.5,024.2,10.6,0000.0,0001.15,0000.81,0000.75
2023-11-22 04:31:00,SystemResetWarning,0837.2,5.00,000.00,023.0,022.0,000.0,031.5,024.2,10.6,0000.0,0001.14,0000.80,0000.75
2023-11-22 04:32:00,SystemResetWarning,0837.2,5.00,000.00,023.0,022.1,000.0,031.5,024.2,10.6,0000.0,0001.13,0000.81,0000.76
2023-11-22 04:33:00,SystemResetWarning,0837.2,5.00,000.00,023.0,022.1,000.0,031.5,024.2,10.5,0000.0,0001.05,0000.80,0000.76
2023-11-22 04:34:00,SystemResetWarning,0837.2,5.00,000.00,023.0,022.0,000.0,031.5,024.2,10.6,0000.0,0001.00,0000.82,0000.76
2023-11-22 04:35:00,SystemResetWarning,0837.2,5.00,000.00,023.0,022.0,000.0,031.5,024.2,10.7,0000.0,0001.03,0000.83,0000.76
2023-11-22 04:36:00,SystemResetWarning,0837.2,5.01,000.00,023.0,022.1,000.0,031.4,024.2,10.6,0000.0,0001.08,0000.86,0000.77
2023-11-22 04:37:00,SystemResetWarning,0837.2,4.99,000.00,023.0,022.1,000.0,031.4,024.2,10.6,0000.0,0001.12,0000.88,0000.76
2023-11-22 04:38:00,SystemResetWarning,0837.2,4.99,000.00,023.0,022.1,000.0,031.4,024.2,10.6,0000.0,0001.11,0000.88,0000.77
2023-11-22 04:39:00,SystemResetWarning,0837.2,4.99,000.00,023.0,022.0,000.0,031.4,024.2,10.6,0000.0,0001.06,0000.86,0000.77
2023-11-22 04:40:00,SystemResetWarning,0837.2,5.00,000.00,023.0,022.0,000.0,031.4,024.1,10.7,0000.0,0001.06,0000.86,0000.77
2023-11-22 04:41:00,SystemResetWarning,0837.2,5.01,000.00,023.0,022.0,000.0,031.4,024.2,10.7,0000.0,0001.15,0000.89,0000.77
2023-11-22 04:42:00,SystemResetWarning,0837.2,5.00,000.00,023.0,022.0,000.0,031.4,024.1,10.6,0000.0,0001.22,0000.90,0000.78
2023-11-22 04:43:00,SystemResetWarning,0837.2,5.01,000.00,023.0,022.0,000.0,031.4,024.1,10.6,0000.0,0001.24,0000.90,0000.77
2023-11-22 04:44:00,SystemResetWarning,0837.2,4.99,000.00,023.0,022.0,000.0,031.4,024.1,10.5,0000.0,0001.27,0000.91,0000.77
2023-11-22 04:45:00,SystemResetWarning,0837.2,4.99,000.00,022.9,022.0,000.0,031.4,024.1,10.5,0000.0,0002.26,0000.92,0000.77
2023-11-22 04:46:00,SystemResetWarning,0837.2,5.00,000.00,022.9,022.0,000.0,031.4,024.1,10.5,0000.0,0002.51,0000.92,0000.77
2023-11-22 04:47:00,SystemResetWarning,0837.2,5.01,000.00,022.9,022.0,000.0,031.4,024.1,10.5,0000.0,0003.30,0000.91,0000.76
2023-11-22 04:48:00,SystemResetWarning,0837.2,5.00,000.00,022.9,022.0,000.0,031.4,024.1,10.5,0000.0,0003.32,0000.88,0000.76
2023-11-22 04:49:00,SystemResetWarning,0837.2,5.01,000.00,022.9,022.0,000.0,031.3,024.1,10.5,0000.0,0003.30,0000.86,0000.74
2023-11-22 04:50:00,SystemResetWarning,0837.2,5.00,000.00,022.9,022.0,000.0,031.3,024.1,10.5,0000.0,0003.31,0000.86,0000.73
2023-11-22 04:51:00,SystemResetWarning,0837.2,4.99,000.00,022.9,022.0,000.0,031.3,024.1,10.5,0000.0,0003.33,0000.86,0000.73
2023-11-22 04:52:00,SystemResetWarning,0837.2,4.99,000.00,022.9,022.0,000.0,031.3,024.1,10.4,0000.0,0003.31,0000.85,0000.72
2023-11-22 04:53:00,SystemResetWarning,0837.2,5.00,000.00,022.9,022.0,000.0,031.3,024.1,10.5,0000.0,0004.18,0000.87,0000.72
2023-11-22 04:54:00,SystemResetWarning,0837.2,4.99,000.00,022.9,022.0,000.0,031.3,024.0,10.5,0000.0,0004.28,0000.86,0000.72
2023-11-22 04:55:00,SystemResetWarning,0837.2,5.01,000.00,022.9,021.9,000.0,031.3,024.0,10.5,0000.0,0004.25,0000.85,0000.71
2023-11-22 04:56:00,SystemResetWarning,0837.2,5.01,000.00,022.9,021.9,000.0,031.3,024.0,10.4,0000.0,0003.49,0000.83,0000.71
2023-11-22 04:57:00,SystemResetWarning,0837.2,5.01,000.00,022.9,021.9,000.0,031.3,024.1,10.4,0000.0,0003.00,0000.83,0000.70
2023-11-22 04:58:00,SystemResetWarning,0837.2,4.99,000.00,022.9,021.9,000.0,031.3,024.0,10.4,0000.0,0002.32,0000.82,0000.69
2023-11-22 04:59:00,SystemResetWarning,0837.2,4.99,000.00,022.8,021.9,000.0,031.3,024.0,10.4,0000.0,0002.10,0000.82,0000.69
